Date,TemperatureHighF,TemperatureAvgF,TemperatureLowF,DewpointHighF,DewpointAvgF,DewpointLowF,HumidityHigh,HumidityAvg,HumidityLow,PressureMaxIn,PressureMinIn,WindSpeedMaxMPH,WindSpeedAvgMPH,GustSpeedMaxMPH,PrecipitationSumIn
2013-2-1,3,-4,-12,0,-10,-18,85,72,54,30.37,30.09,15,4,16,0.00
2013-2-2,12,6,0,7,0,-4,87,78,63,30.23,30.01,11,2,13,0.00
2013-2-3,13,10,3,8,4,-1,92,79,69,30.11,30.00,18,5,19,0.00
2013-2-4,15,10,3,12,3,-3,88,73,59,30.11,29.75,15,3,15,0.00
2013-2-5,28,22,10,24,17,6,92,79,59,30.09,29.65,18,5,18,0.01
2013-2-6,25,16,7,22,13,4,89,86,81,30.11,29.96,12,3,13,0.00
2013-2-7,28,25,24,23,22,21,93,87,78,30.26,30.00,19,5,19,0.01
2013-2-8,28,22,14,22,16,11,92,76,59,30.39,30.21,17,3,17,0.00
2013-2-9,33,29,25,29,26,21,92,87,83,30.21,29.93,21,6,21,0.00
2013-2-10,33,30,28,32,28,25,97,93,86,29.93,29.26,18,6,19,0.01
2013-2-11,30,25,16,29,21,13,97,83,74,30.04,29.33,31,10,31,0.00
2013-2-12,34,24,14,24,18,11,87,78,64,30.04,29.80,22,6,22,0.03
2013-2-13,39,29,22,32,25,18,96,84,63,29.80,29.54,17,4,17,0.09
2013-2-14,32,26,14,31,18,4,96,75,39,30.19,29.58,27,5,27,0.11
2013-2-15,18,11,5,6,3,0,81,69,53,30.33,30.19,18,6,18,0.00
2013-2-16,19,10,3,8,4,-2,94,75,59,30.29,30.13,9,1,9,0.00
2013-2-17,32,22,10,24,15,5,82,74,65,30.13,29.61,26,5,26,0.00
2013-2-18,33,24,9,30,18,3,89,79,73,29.82,29.50,28,8,29,0.00
2013-2-19,9,6,2,3,-3,-6,79,68,59,30.41,29.82,31,9,31,0.00
2013-2-20,16,6,-4,4,-2,-9,81,69,56,30.51,30.41,11,2,12,0.00
2013-2-21,23,14,3,16,7,-1,90,72,59,30.48,30.11,16,4,17,0.00
2013-2-22,27,23,20,24,20,16,93,90,80,30.11,29.86,13,4,14,0.07
2013-2-23,32,25,20,26,21,17,92,86,75,29.96,29.84,13,4,13,0.02
2013-2-24,36,24,12,24,18,9,92,79,59,30.11,29.96,11,1,11,0.00
2013-2-25,37,28,21,24,21,18,88,77,60,30.11,30.01,7,0,7,0.00
2013-2-26,36,26,14,28,21,12,93,83,71,30.06,29.88,18,4,19,0.00
2013-2-27,39,32,28,27,25,22,86,77,57,30.03,29.87,23,6,23,0.00
2013-2-28,31,28,24,23,21,17,81,74,68,30.24,30.02,19,5,19,0.00